{"data":{"norad_id":64840,"epoch":"2026-05-25T01:15:19.413792Z","epoch_age_seconds":64310,"freshness":"FRESH","line1":"1 64840U 25135BT  26145.05230803  .00001396  00000+0  13611-3 0  9990","line2":"2 64840  97.7692 259.8397 0006744  64.7336 295.4582 14.94051501 50456","mean_motion":14.94051501,"eccentricity":0.0006744,"inclination_deg":97.7692,"raan_deg":259.8397,"arg_perigee_deg":64.7336,"mean_anomaly_deg":295.4582,"bstar":0.00013611,"rev_number":5045,"period_min":96.382219691636,"perigee_km":580.6222061677,"apogee_km":590.0145147579,"semimajor_km":6963.4553604628,"source":"CELESTRAK","updated_at":"2026-05-25T13:38:13.571798Z"}}